GW5351 Weather Reports


Display with metric or nautical units.
time (UTC)temp
F
wind
direction
speed
MPH
gust
MPH
rain 1hr
in
rain 24hr
in
rain mn
in
humidity
%
barometer
mb
20260507120310 63 7 3.0 4.0 0.00 0.00 0.00 91 1016.1
20260507115807 63 296 2.0 6.0 0.00 0.00 0.00 91 1016.0
20260507115306 63 1 2.0 4.0 0.00 0.00 0.00 91 1015.9
20260507114758 63 357 4.0 7.0 0.00 0.00 0.00 91 1015.9
20260507114256 63 288 2.0 4.0 0.00 0.00 0.00 91 1015.8
20260507113753 63 311 4.0 8.0 0.00 0.00 0.00 91 1015.8
20260507113249 63 12 6.0 9.0 0.00 0.00 0.00 91 1016.1
20260507112748 63 327 4.0 6.0 0.00 0.00 0.00 91 1016.1
20260507112244 63 313 4.0 9.0 0.00 0.00 0.00 91 1015.8
20260507111742 63 287 6.0 8.0 0.00 0.00 0.00 91 1015.7
20260507111238 63 347 3.0 4.0 0.00 0.00 0.00 91 1015.9
20260507110734 63 316 2.0 9.0 0.00 0.00 0.00 91 1015.3
20260507110231 64 310 3.0 4.0 0.00 0.00 0.00 91 1015.6
20260507105728 64 330 5.0 7.0 0.00 0.00 0.00 92 1015.4
20260507105224 64 245 1.0 4.0 0.00 0.00 0.00 92 1015.3
20260507104722 64 332 3.0 3.0 0.00 0.00 0.00 92 1015.0
20260507104218 64 235 0.0 2.0 0.00 0.00 0.00 92 1015.3
20260507103714 64 56 2.0 3.0 0.00 0.00 0.00 92 1015.1
20260507103210 64 263 0.0 2.0 0.00 0.00 0.00 92 1015.0
20260507102707 64 245 0.0 2.0 0.00 0.00 0.00 92 1015.2
20260507102204 64 279 3.0 4.0 0.00 0.00 0.00 92 1014.7
20260507101659 64 35 2.0 4.0 0.00 0.00 0.00 92 1014.9
20260507101155 64 24 3.0 6.0 0.00 0.00 0.00 92 1014.8
20260507100653 64 300 3.0 6.0 0.00 0.00 0.00 92 1014.5
20260507100151 64 278 2.0 2.0 0.00 0.00 0.00 92 1014.9
20260507095648 64 179 2.0 2.0 0.00 0.00 0.00 92 1014.7
20260507095145 64 350 3.0 4.0 0.00 0.00 0.00 92 1014.6
20260507094641 64 231 0.0 3.0 0.00 0.00 0.00 92 1014.8
20260507094138 64 11 2.0 8.0 0.00 0.00 0.00 92 1014.3
20260507093635 64 307 2.0 7.0 0.00 0.00 0.00 92 1014.3
20260507093134 64 234 3.0 4.0 0.00 0.00 0.00 92 1014.3
20260507092631 64 227 2.0 7.0 0.00 0.00 0.00 92 1014.2
20260507092127 64 11 4.0 6.0 0.00 0.00 0.00 92 1014.4
20260507091624 64 288 1.0 4.0 0.00 0.00 0.00 92 1014.3
20260507091120 64 322 3.0 6.0 0.00 0.00 0.00 92 1014.2
20260507090616 64 280 2.0 4.0 0.00 0.00 0.00 92 1014.2
20260507090113 64 346 4.0 7.0 0.00 0.00 0.00 92 1014.3
20260507085610 64 307 2.0 3.0 0.00 0.00 0.00 92 1014.2
20260507085106 64 333 5.0 7.0 0.00 0.00 0.00 92 1014.2
20260507084603 64 10 3.0 3.0 0.00 0.00 0.00 92 1014.3
20260507084100 64 243 1.0 2.0 0.00 0.00 0.00 92 1014.2
20260507083556 64 275 4.0 6.0 0.00 0.00 0.00 92 1014.2
20260507083054 64 256 2.0 4.0 0.00 0.00 0.00 92 1014.2
20260507082549 64 359 4.0 6.0 0.00 0.00 0.00 92 1014.3
20260507082046 64 255 1.0 3.0 0.00 0.00 0.00 92 1014.4
20260507081542 64 321 2.0 4.0 0.00 0.00 0.00 92 1014.0
20260507081040 64 332 2.0 6.0 0.00 0.00 0.00 92 1014.1
20260507080535 64 259 2.0 4.0 0.00 0.00 0.00 91 1014.5
20260507080032 64 6 3.0 8.0 0.00 0.00 0.00 91 1014.5
20260507075527 64 334 4.0 6.0 0.00 0.00 0.00 91 1014.1
20260507075024 64 321 2.0 7.0 0.00 0.00 0.00 91 1014.3
20260507074520 64 348 4.0 6.0 0.00 0.00 0.00 91 1014.4
20260507074020 64 293 2.0 3.0 0.00 0.00 0.00 91 1014.6
20260507073515 64 321 3.0 4.0 0.00 0.00 0.00 91 1014.6
20260507073012 64 257 1.0 2.0 0.00 0.00 0.00 91 1015.0
20260507072509 64 350 4.0 6.0 0.00 0.00 0.00 90 1014.6
20260507072006 65 258 1.0 3.0 0.00 0.00 0.00 90 1014.5
20260507071504 65 11 4.0 6.0 0.00 0.00 0.00 90 1014.6
20260507071000 65 204 2.0 4.0 0.00 0.00 0.00 90 1014.2
20260507070457 65 351 2.0 6.0 0.00 0.00 0.00 90 1014.8
20260507065954 65 247 2.0 3.0 0.00 0.00 0.00 89 1014.8
20260507065451 65 252 1.0 7.0 0.00 0.00 0.00 89 1015.0
20260507064948 65 266 2.0 3.0 0.00 0.00 0.00 89 1015.1
20260507064446 65 7 5.0 6.0 0.00 0.00 0.00 89 1015.0
20260507063943 65 249 3.0 4.0 0.00 0.00 0.00 89 1014.9
20260507063440 65 356 2.0 6.0 0.00 0.00 0.00 89 1014.9
20260507062937 65 287 4.0 6.0 0.00 0.00 0.00 88 1015.1
20260507062434 65 246 2.0 3.0 0.00 0.00 0.00 88 1014.6
20260507061932 65 295 2.0 9.0 0.00 0.00 0.00 88 1014.5
20260507061429 65 334 3.0 6.0 0.00 0.00 0.00 88 1015.0
20260507060928 65 242 1.0 3.0 0.00 0.00 0.00 88 1014.8
20260507060424 65 311 2.0 4.0 0.00 0.00 0.00 88 1014.5
20260507055921 65 298 4.0 13.0 0.00 0.00 0.00 88 1014.3
20260507055416 65 300 3.0 8.0 0.00 0.00 0.00 88 1014.5
20260507054914 65 103 3.0 6.0 0.00 0.00 0.00 88 1014.6
20260507054409 66 341 1.0 3.0 0.00 0.00 0.00 88 1014.6
20260507053907 66 355 6.0 8.0 0.00 0.00 0.00 88 1014.7
20260507053404 66 339 1.0 3.0 0.00 0.00 0.00 87 1014.8
20260507052903 66 316 2.0 4.0 0.00 0.00 0.00 87 1014.8
20260507052400 66 289 3.0 8.0 0.00 0.00 0.00 87 1014.5
20260507051857 66 354 4.0 6.0 0.00 0.00 0.00 87 1014.5
20260507051355 66 282 2.0 8.0 0.00 0.00 0.00 87 1014.4
20260507050851 66 288 3.0 8.0 0.00 0.00 0.00 87 1014.6
20260507050348 66 7 2.0 10.0 0.00 0.00 0.00 87 1014.6
20260507045845 66 272 2.0 3.0 0.00 0.07 0.07 87 1014.6
20260507045341 66 219 3.0 6.0 0.00 0.07 0.07 87 1014.4
20260507044838 66 340 2.0 4.0 0.00 0.07 0.07 87 1014.6
20260507044335 67 5 1.0 7.0 0.00 0.07 0.07 87 1014.4
20260507043830 67 333 2.0 4.0 0.00 0.07 0.07 87 1014.3
20260507043327 67 344 4.0 8.0 0.00 0.07 0.07 87 1014.2
20260507042824 67 292 1.0 3.0 0.00 0.07 0.07 87 1014.2
20260507042320 67 8 5.0 6.0 0.00 0.07 0.07 87 1014.1
20260507041817 68 294 1.0 3.0 0.00 0.07 0.07 87 1014.1
20260507041313 68 320 3.0 7.0 0.00 0.07 0.07 86 1014.2
20260507040810 68 288 2.0 4.0 0.00 0.07 0.07 87 1014.2
20260507040306 68 22 3.0 6.0 0.00 0.07 0.07 87 1014.3
20260507035802 68 258 1.0 7.0 0.00 0.07 0.07 86 1014.0
20260507035258 68 30 4.0 6.0 0.00 0.07 0.07 86 1014.1
20260507034756 68 311 1.0 2.0 0.00 0.07 0.07 86 1014.3
20260507034252 68 292 2.0 3.0 0.00 0.07 0.07 86 1014.4
20260507033751 68 251 1.0 2.0 0.00 0.07 0.07 86 1014.5
20260507033248 69 308 1.0 3.0 0.00 0.07 0.07 86 1014.2
20260507032745 69 279 1.0 1.0 0.00 0.07 0.07 86 1014.0
20260507032241 69 283 1.0 2.0 0.00 0.07 0.07 86 1013.8
20260507031738 69 272 1.0 4.0 0.00 0.07 0.07 86 1014.1
20260507031235 69 243 1.0 7.0 0.00 0.07 0.07 86 1013.8
20260507030731 69 277 3.0 3.0 0.00 0.07 0.07 86 1013.7
20260507030229 69 322 2.0 2.0 0.00 0.07 0.07 86 1013.3
20260507025726 69 357 5.0 8.0 0.00 0.07 0.07 86 1013.3
20260507025223 69 307 2.0 3.0 0.00 0.07 0.07 86 1013.2
20260507024721 69 211 1.0 4.0 0.00 0.07 0.07 86 1012.9
20260507024218 69 206 1.0 3.0 0.00 0.07 0.07 86 1012.9
20260507023713 70 344 2.0 3.0 0.00 0.07 0.07 85 1012.6
20260507023211 70 31 4.0 9.0 0.00 0.07 0.07 85 1012.7
20260507022708 70 316 2.0 6.0 0.00 0.07 0.07 85 1012.6
20260507022204 70 357 4.0 6.0 0.00 0.07 0.07 85 1012.6
20260507021700 70 10 3.0 10.0 0.00 0.07 0.07 85 1012.3
20260507021155 70 221 3.0 4.0 0.00 0.07 0.07 85 1012.3
20260507020655 70 313 4.0 6.0 0.00 0.07 0.07 85 1012.0
20260507020150 70 342 3.0 6.0 0.00 0.07 0.07 85 1011.9
20260507015648 70 270 1.0 3.0 0.00 0.07 0.07 85 1011.9
20260507015145 70 262 1.0 4.0 0.00 0.07 0.07 85 1012.0
20260507014642 70 0 3.0 4.0 0.00 0.07 0.07 85 1011.9
20260507014138 71 356 5.0 9.0 0.00 0.07 0.07 85 1011.8
20260507013635 71 238 2.0 3.0 0.00 0.07 0.07 85 1011.5
20260507013132 71 231 3.0 4.0 0.00 0.07 0.07 85 1011.5
20260507012629 71 307 2.0 4.0 0.00 0.07 0.07 85 1011.4
20260507012124 71 238 2.0 6.0 0.00 0.07 0.07 86 1011.4
20260507011623 71 6 4.0 4.0 0.00 0.07 0.07 86 1011.4
20260507011119 71 328 2.0 7.0 0.00 0.07 0.07 85 1011.2
20260507010614 72 274 3.0 4.0 0.00 0.07 0.07 86 1011.1
20260507010110 72 14 4.0 8.0 0.00 0.07 0.07 85 1011.1
20260507005608 72 239 2.0 4.0 0.00 0.07 0.07 85 1011.0
20260507005103 72 315 2.0 3.0 0.00 0.07 0.07 86 1011.1
20260507004601 73 322 3.0 3.0 0.00 0.07 0.07 85 1010.9
20260507004058 73 34 1.0 3.0 0.00 0.07 0.07 85 1010.9
20260507003554 73 273 4.0 7.0 0.00 0.07 0.07 85 1010.9
20260507003049 73 249 3.0 4.0 0.00 0.07 0.07 85 1010.6
20260507002546 73 225 2.0 7.0 0.00 0.07 0.07 85 1010.5
20260507002042 73 285 2.0 3.0 0.00 0.07 0.07 85 1010.4
20260507001538 74 271 2.0 3.0 0.00 0.07 0.07 85 1010.4
20260507001036 74 300 2.0 4.0 0.00 0.07 0.07 85 1010.5
20260507000532 75 198 2.0 4.0 0.00 0.07 0.07 85 1010.3
20260507000027 75 330 2.0 6.0 0.00 0.07 0.07 85 1010.4
20260506235525 75 225 1.0 4.0 0.00 0.07 0.07 85 1010.3
20260506235021 76 261 3.0 8.0 0.00 0.07 0.07 85 1010.2
20260506234519 76 226 2.0 7.0 0.00 0.07 0.07 85 1010.2
20260506234015 77 221 1.0 6.0 0.00 0.07 0.07 85 1010.1
20260506233512 77 269 4.0 7.0 0.00 0.07 0.07 85 1010.1
20260506233009 78 19 1.0 4.0 0.00 0.07 0.07 85 1009.9
20260506232505 80 211 3.0 9.0 0.00 0.07 0.07 84 1009.7
20260506232001 84 233 0.0 1.0 0.00 0.07 0.07 85 1009.6
20260506231458 84 232 0.0 2.0 0.00 0.07 0.07 84 1009.4
20260506230956 84 240 0.0 2.0 0.00 0.07 0.07 84 1009.6
20260506230452 83 240 0.0 1.0 0.00 0.07 0.07 85 1009.2
20260506225948 83 239 0.0 1.0 0.00 0.07 0.07 85 1009.5
20260506225446 83 232 0.0 0.0 0.00 0.07 0.07 86 1009.7
20260506224943 83 232 0.0 1.0 0.00 0.07 0.07 85 1009.5
20260506224440 83 232 0.0 0.0 0.00 0.07 0.07 85 1009.5
20260506223936 83 232 0.0 2.0 0.00 0.07 0.07 85 1009.2
20260506223432 84 246 0.0 0.0 0.00 0.07 0.07 84 1009.4
20260506222929 84 246 0.0 0.0 0.00 0.07 0.07 84 1009.3
20260506222425 84 246 2.0 2.0 0.00 0.07 0.07 83 1009.2
20260506221923 84 246 0.0 0.0 0.00 0.07 0.07 82 1009.3
20260506221420 85 246 0.0 0.0 0.00 0.07 0.07 81 1009.2
20260506220918 84 246 0.0 1.0 0.00 0.07 0.07 80 1009.2
20260506220413 85 246 0.0 0.0 0.00 0.07 0.07 79 1009.2
20260506215909 85 246 0.0 0.0 0.00 0.07 0.07 80 1009.1
20260506215406 86 233 1.0 1.0 0.00 0.07 0.07 79 1009.2
20260506214902 86 253 1.0 2.0 0.00 0.07 0.07 78 1009.3
20260506214359 86 239 1.0 1.0 0.00 0.07 0.07 78 1009.5
20260506213857 85 236 1.0 1.0 0.00 0.07 0.07 79 1009.4
20260506213354 84 223 2.0 2.0 0.00 0.07 0.07 80 1009.3
20260506212851 85 236 1.0 2.0 0.00 0.07 0.07 81 1009.1
20260506212347 85 230 2.0 2.0 0.00 0.07 0.07 79 1009.3
20260506211842 86 201 0.0 1.0 0.00 0.07 0.07 78 1009.4
20260506211338 85 218 0.0 2.0 0.00 0.07 0.07 79 1009.3
20260506210836 87 222 1.0 1.0 0.00 0.07 0.07 77 1009.3
20260506210332 86 208 0.0 2.0 0.00 0.07 0.07 79 1009.3
20260506205830 86 224 0.0 2.0 0.00 0.07 0.07 79 1009.5
20260506205326 86 231 0.0 2.0 0.00 0.07 0.07 79 1009.5
20260506204822 87 230 1.0 1.0 0.00 0.07 0.07 76 1009.7
20260506204320 87 217 0.0 3.0 0.00 0.07 0.07 76 1009.5
20260506203817 86 227 0.0 1.0 0.00 0.07 0.07 79 1009.5
20260506203314 86 229 1.0 3.0 0.00 0.07 0.07 80 1009.6
20260506202811 84 284 1.0 2.0 0.00 0.07 0.07 82 1009.6
20260506202308 85 293 2.0 2.0 0.00 0.07 0.07 80 1009.8
20260506201804 84 209 0.0 2.0 0.00 0.07 0.07 83 1009.9
20260506201302 84 255 0.0 1.0 0.00 0.07 0.07 83 1009.7
20260506200759 84 331 3.0 3.0 0.00 0.07 0.07 84 1009.8
20260506200249 83 237 0.0 2.0 0.00 0.07 0.07 85 1010.0
20260506195746 82 220 0.0 1.0 0.00 0.07 0.07 87 1010.2
20260506195242 82 267 1.0 2.0 0.00 0.07 0.07 87 1010.1
20260506194740 82 229 1.0 2.0 0.00 0.07 0.07 85 1010.2
20260506194236 81 229 0.0 0.0 0.00 0.07 0.07 85 1010.3
20260506193734 82 229 0.0 1.0 0.00 0.07 0.07 86 1010.2
20260506193231 82 229 0.0 1.0 0.00 0.07 0.07 86 1010.2
20260506192727 83 226 0.0 2.0 0.00 0.07 0.07 86 1010.3
20260506192224 82 199 0.0 1.0 0.00 0.07 0.07 86 1010.4
20260506191721 83 202 0.0 0.0 0.00 0.07 0.07 85 1010.3
20260506191217 82 227 0.0 2.0 0.00 0.07 0.07 85 1010.5
20260506190714 82 204 0.0 1.0 0.00 0.07 0.07 89 1010.4
20260506190211 81 232 0.0 2.0 0.00 0.07 0.07 91 1010.4
20260506185708 80 219 0.0 0.0 0.00 0.07 0.07 94 1010.3
20260506185204 80 272 1.0 2.0 0.00 0.07 0.07 96 1010.5
20260506184702 79 205 0.0 2.0 0.00 0.07 0.07 97 1010.5
20260506184159 78 235 0.0 0.0 0.00 0.07 0.07 96 1010.6
20260506183655 78 210 0.0 0.0 0.00 0.07 0.07 96 1010.9
20260506183151 78 224 0.0 0.0 0.17 0.07 0.07 96 1010.9
20260506182649 78 203 0.0 0.0 0.24 0.07 0.07 95 1011.0
20260506182145 78 202 0.0 0.0 0.19 0.04 0.04 95 1010.9
20260506181643 78 201 0.0 0.0 0.12 0.03 0.03 94 1011.0
20260506181140 79 201 0.0 0.0 0.00 0.01 0.01 93 1011.3
20260506180638 79 213 0.0 1.0 0.00 0.01 0.01 92 1011.4
20260506180134 80 232 0.0 0.0 0.00 0.01 0.01 92 1011.4
20260506175631 80 226 0.0 0.0 0.05 0.01 0.01 90 1011.4
20260506175126 81 227 0.0 0.0 0.05 0.01 0.01 89 1011.6
20260506174625 81 227 0.0 0.0 0.00 0.00 0.00 88 1011.6
20260506174121 82 227 0.0 0.0 0.00 0.00 0.00 86 1011.7
20260506173619 82 227 0.0 0.0 0.00 0.00 0.00 85 1011.8
20260506173115 82 227 0.0 0.0 0.00 0.00 0.00 83 1011.8
20260506172613 82 227 0.0 0.0 0.00 0.00 0.00 84 1011.8
20260506172109 82 227 0.0 0.0 0.00 0.00 0.00 83 1011.8
20260506171607 83 227 0.0 0.0 0.00 0.00 0.00 84 1011.9
20260506171104 82 227 0.0 0.0 0.00 0.00 0.00 83 1012.1
20260506170601 82 227 0.0 0.0 0.00 0.00 0.00 84 1011.9
20260506170053 82 222 0.0 0.0 0.00 0.00 0.00 85 1012.1
20260506165551 81 220 0.0 0.0 0.00 0.00 0.00 85 1012.0
20260506165047 81 219 0.0 0.0 0.00 0.00 0.00 85 1011.9
20260506164544 81 199 0.0 0.0 0.00 0.00 0.00 85 1012.1
20260506164041 81 222 0.0 3.0 0.00 0.00 0.00 85 1012.1
20260506163537 81 232 1.0 2.0 0.00 0.00 0.00 86 1011.8
20260506163033 81 199 0.0 1.0 0.00 0.00 0.00 86 1011.8
20260506162529 81 192 1.0 2.0 0.00 0.00 0.00 86 1011.7
20260506162021 81 233 1.0 1.0 0.00 0.00 0.00 86 1011.7
20260506161518 81 199 0.0 1.0 0.00 0.00 0.00 87 1011.7
20260506161015 80 195 0.0 2.0 0.00 0.00 0.00 88 1011.7
20260506160513 80 223 0.0 1.0 0.00 0.00 0.00 87 1011.7
20260506160011 80 241 0.0 0.0 0.00 0.00 0.00 87 1011.5
20260506155509 80 208 0.0 1.0 0.00 0.00 0.00 87 1011.4
20260506153645 80 234 0.0 0.0 0.00 0.00 0.00 87 1011.3
20260506153142 80 207 0.0 0.0 0.00 0.00 0.00 87 1011.2
20260506152639 80 220 0.0 0.0 0.00 0.00 0.00 87 1011.2
20260506152137 80 220 0.0 1.0 0.00 0.00 0.00 88 1011.4
20260506151636 80 196 0.0 0.0 0.00 0.00 0.00 87 1011.4
20260506151132 80 197 0.0 2.0 0.00 0.00 0.00 88 1011.5
20260506150629 80 203 0.0 1.0 0.00 0.00 0.00 88 1011.2
20260506150127 79 226 1.0 1.0 0.00 0.00 0.00 90 1011.2
20260506145624 79 160 1.0 2.0 0.00 0.00 0.00 90 1011.0
20260506145120 79 224 0.0 0.0 0.00 0.00 0.00 90 1011.2
20260506144617 79 226 0.0 0.0 0.00 0.00 0.00 90 1011.1
20260506144114 79 244 1.0 3.0 0.00 0.00 0.00 90 1011.0
20260506143612 79 238 0.0 2.0 0.00 0.00 0.00 90 1011.0
20260506143110 79 231 0.0 0.0 0.00 0.00 0.00 89 1010.7
20260506142608 79 212 1.0 1.0 0.00 0.00 0.00 89 1010.8
20260506142106 79 212 0.0 2.0 0.00 0.00 0.00 89 1010.7
20260506141603 79 178 2.0 3.0 0.00 0.00 0.00 89 1010.7
20260506141102 79 207 0.0 1.0 0.00 0.00 0.00 90 1010.8
20260506140558 79 261 1.0 2.0 0.00 0.00 0.00 90 1010.8
20260506140056 79 185 1.0 2.0 0.00 0.00 0.00 90 1010.8
20260506135552 78 206 1.0 2.0 0.00 0.00 0.00 90 1010.8
20260506135048 78 220 0.0 1.0 0.00 0.00 0.00 91 1010.8
20260506134545 78 208 0.0 1.0 0.00 0.00 0.00 92 1010.8
20260506134041 77 205 1.0 1.0 0.00 0.00 0.00 93 1010.9
20260506133538 77 204 2.0 2.0 0.00 0.00 0.00 93 1011.1
20260506133035 77 204 0.0 0.0 0.00 0.00 0.00 94 1011.1
20260506132532 77 195 0.0 0.0 0.00 0.00 0.00 94 1011.2
20260506132029 76 196 0.0 0.0 0.00 0.00 0.00 95 1011.2
20260506131526 76 196 0.0 0.0 0.00 0.00 0.00 95 1011.1
20260506131023 76 196 0.0 0.0 0.00 0.00 0.00 95 1011.1
20260506130520 76 196 0.0 0.0 0.00 0.00 0.00 95 1011.2
20260506130018 76 197 0.0 0.0 0.00 0.00 0.00 96 1011.2
20260506125516 75 197 0.0 0.0 0.00 0.00 0.00 96 1010.9
20260506125013 75 196 0.0 1.0 0.00 0.00 0.00 96 1010.8
20260506124511 75 196 0.0 0.0 0.00 0.00 0.00 96 1010.9
20260506124009 75 197 0.0 0.0 0.00 0.00 0.00 96 1010.7
20260506123506 75 197 0.0 0.0 0.00 0.00 0.00 96 1010.8
20260506123004 75 197 0.0 0.0 0.00 0.00 0.00 96 1010.7
20260506122500 75 197 0.0 0.0 0.00 0.00 0.00 96 1010.7
20260506121959 75 199 0.0 0.0 0.00 0.00 0.00 96 1010.6
20260506121455 75 211 0.0 0.0 0.00 0.00 0.00 96 1010.7
20260506120952 75 201 0.0 2.0 0.00 0.00 0.00 96 1010.5